,,Stat5,,Stat1,,Stat2,,Stat3,,Stat4,,Wind1,,Wind1,
time,status,PA1M_AVG,status,PR1M_SUM,status,RH1M_AVG,status,SR1M_AVG,status,TA1M_AVG,status,W1dAve1m,status,W1sAve1m,
2003-05-27, 00:00:00,VALID,918.703,VALID,0,VALID,98.103,VALID,-0.0849042,VALID,20.4644,VALID,89,VALID,0.590794,
2003-05-27, 00:01:00,VALID,918.702,VALID,0,VALID,98.1552,VALID,-0.0849042,VALID,20.4522,VALID,87,VALID,0.445068,
2003-05-27, 00:02:00,VALID,918.691,VALID,0,VALID,98.1513,VALID,-0.0849042,VALID,20.4221,VALID,87,VALID,0.212891,
2003-05-27, 00:03:00,VALID,918.687,VALID,0,VALID,98.1958,VALID,-0.0679233,VALID,20.407,VALID,87,VALID,0.0112847,
2003-05-27, 00:04:00,VALID,918.676,VALID,0,VALID,98.103,VALID,-0.118866,VALID,20.3772,VALID,87,VALID,0,
2003-05-27, 00:05:00,VALID,918.681,VALID,0,VALID,98.1412,VALID,-0.0509425,VALID,20.3613,VALID,87,VALID,0.134766,
2003-05-27, 00:06:00,VALID,918.668,VALID,0,VALID,98.1806,VALID,-0.0679233,VALID,20.3484,VALID,87,VALID,0.331473,
2003-05-27, 00:07:00,VALID,918.652,VALID,0,VALID,98.2874,VALID,-0.0509425,VALID,20.3454,VALID,87,VALID,0.594934,
2003-05-27, 00:08:00,VALID,918.65,VALID,0,VALID,98.3624,VALID,-0.0509425,VALID,20.3225,VALID,87,VALID,0.580134,
2003-05-27, 00:09:00,VALID,918.652,VALID,0,VALID,98.6485,VALID,-0.0509425,VALID,20.3519,VALID,87,VALID,0.412723,
2003-05-27, 00:10:00,VALID,918.654,VALID,0,VALID,98.6816,VALID,-0.0679233,VALID,20.3645,VALID,87,VALID,0.288352,
2003-05-27, 00:11:00,VALID,918.677,VALID,0,VALID,98.6969,VALID,-0.0849042,VALID,20.3645,VALID,87,VALID,0.180921,
2003-05-27, 00:12:00,VALID,918.685,VALID,0,VALID,98.5748,VALID,-0.0509425,VALID,20.3223,VALID,87,VALID,0.212086,
2003-05-27, 00:13:00,VALID,918.691,VALID,0,VALID,98.4476,VALID,-0.0679233,VALID,20.2838,VALID,87,VALID,0.232481,
2003-05-27, 00:14:00,VALID,918.687,VALID,0,VALID,98.4642,VALID,-0.0509425,VALID,20.2512,VALID,84,VALID,0.342231,
2003-05-27, 00:15:00,VALID,918.655,VALID,0,VALID,98.5951,VALID,-0.0849042,VALID,20.2776,VALID,75,VALID,0.674107,
2003-05-27, 00:16:00,VALID,918.657,VALID,0,VALID,98.7465,VALID,-0.0509425,VALID,20.3193,VALID,74,VALID,0.653883,
2003-05-27, 00:17:00,VALID,918.631,VALID,0,VALID,98.8011,VALID,-0.0679233,VALID,20.3422,VALID,79,VALID,0.679911,
2003-05-27, 00:18:00,VALID,918.633,VALID,0,VALID,99.0262,VALID,-0.0849042,VALID,20.3909,VALID,103,VALID,0.655134,
2003-05-27, 00:19:00,VALID,918.634,VALID,0,VALID,99.058,VALID,-0.0849042,VALID,20.4453,VALID,124,VALID,0.330256,
2003-05-27, 00:20:00,VALID,918.631,VALID,0,VALID,99.0338,VALID,-0.0339617,VALID,20.4681,VALID,124,VALID,0.303248,
2003-05-27, 00:21:00,VALID,918.616,VALID,0,VALID,98.9919,VALID,-0.0849042,VALID,20.4811,VALID,92,VALID,0.491728,
2003-05-27, 00:22:00,VALID,918.614,VALID,0,VALID,98.899,VALID,-0.0679233,VALID,20.4811,VALID,63,VALID,0.70786,
2003-05-27, 00:23:00,VALID,918.587,VALID,0,VALID,98.7948,VALID,-0.0849042,VALID,20.4749,VALID,60,VALID,0.625,
2003-05-27, 00:24:00,VALID,918.57,VALID,0,VALID,98.7134,VALID,-0.0849042,VALID,20.4617,VALID,40,VALID,0.72567,
2003-05-27, 00:25:00,VALID,918.546,VALID,0,VALID,98.7871,VALID,-0.101885,VALID,20.4875,VALID,36,VALID,0.740057,
2003-05-27, 00:26:00,VALID,918.51,VALID,0,VALID,98.7808,VALID,-0.0849042,VALID,20.523,VALID,49,VALID,0.715179,
2003-05-27, 00:27:00,VALID,918.493,VALID,0,VALID,98.7732,VALID,-0.0339617,VALID,20.5524,VALID,61,VALID,0.73683,
2003-05-27, 00:28:00,VALID,918.468,VALID,0,VALID,98.7579,VALID,-0.0849042,VALID,20.5747,VALID,64,VALID,0.8241,
2003-05-27, 00:29:00,VALID,918.445,VALID,0,VALID,98.7363,VALID,-0.0849042,VALID,20.5844,VALID,73,VALID,0.733758,
2003-05-27, 00:30:00,VALID,918.435,VALID,0,VALID,98.6524,VALID,-0.101885,VALID,20.5847,VALID,84,VALID,0.773667,
2003-05-27, 00:31:00,VALID,918.417,VALID,0,VALID,98.6269,VALID,-0.101885,VALID,20.5745,VALID,74,VALID,0.852036,
2003-05-27, 00:32:00,VALID,918.397,VALID,0,VALID,98.6816,VALID,-0.0849042,VALID,20.5683,VALID,49,VALID,1.01128,
2003-05-27, 00:33:00,VALID,918.381,VALID,0,VALID,98.7668,VALID,-0.101885,VALID,20.5817,VALID,37,VALID,0.747768,
2003-05-27, 00:34:00,VALID,918.372,VALID,0,VALID,98.7782,VALID,-0.0849042,VALID,20.5712,VALID,39,VALID,0.539063,
2003-05-27, 00:35:00,VALID,918.37,VALID,0,VALID,98.7935,VALID,-0.0679233,VALID,20.565,VALID,35,VALID,0.622545,
2003-05-27, 00:36:00,VALID,918.37,VALID,0,VALID,98.8164,VALID,-0.101885,VALID,20.568,VALID,45,VALID,0.531696,
2003-05-27, 00:37:00,VALID,918.377,VALID,0,VALID,98.7986,VALID,-0.0849042,VALID,20.5825,VALID,67,VALID,0.291667,
2003-05-27, 00:38:00,VALID,918.401,VALID,0,VALID,98.7782,VALID,-0.0849042,VALID,20.5618,VALID,71,VALID,0.100535,
2003-05-27, 00:39:00,VALID,918.42,VALID,0,VALID,98.7821,VALID,-0.0849042,VALID,20.5715,VALID,61,VALID,0.516774,
2003-05-27, 00:40:00,VALID,918.422,VALID,0,VALID,98.8291,VALID,-0.0679233,VALID,20.565,VALID,37,VALID,0.189394,
2003-05-27, 00:41:00,VALID,918.42,VALID,0,VALID,98.8164,VALID,0.0169808,VALID,20.56,VALID,72,VALID,0.337457,
2003-05-27, 00:42:00,VALID,918.393,VALID,0,VALID,98.7554,VALID,0.0169808,VALID,20.5632,VALID,86,VALID,0.255134,
2003-05-27, 00:43:00,VALID,918.362,VALID,0,VALID,98.7312,VALID,0.0169808,VALID,20.5637,VALID,84,VALID,0.220881,
2003-05-27, 00:44:00,VALID,918.325,VALID,0,VALID,98.7541,VALID,0,VALID,20.5603,VALID,50,VALID,0.257143,
2003-05-27, 00:45:00,VALID,918.291,VALID,0,VALID,98.6829,VALID,0.0169808,VALID,20.5568,VALID,67,VALID,0.423214,
2003-05-27, 00:46:00,VALID,918.264,VALID,0,VALID,98.6078,VALID,0,VALID,20.5406,VALID,90,VALID,0.378314,
2003-05-27, 00:47:00,VALID,918.23,VALID,0,VALID,98.5888,VALID,0,VALID,20.5314,VALID,92,VALID,0.250206,
2003-05-27, 00:48:00,VALID,918.226,VALID,0,VALID,98.5455,VALID,0.0169808,VALID,20.5088,VALID,92,VALID,0.380974,
2003-05-27, 00:49:00,VALID,918.218,VALID,0,VALID,98.5163,VALID,0,VALID,20.473,VALID,93,VALID,0.234138,
2003-05-27, 00:50:00,VALID,918.211,VALID,0,VALID,98.5672,VALID,0,VALID,20.4698,VALID,93,VALID,0.0203993,
2003-05-27, 00:51:00,VALID,918.202,VALID,0,VALID,98.571,VALID,0.0169808,VALID,20.4599,VALID,97,VALID,0.177232,
2003-05-27, 00:52:00,VALID,918.19,VALID,0,VALID,98.5481,VALID,0.0339617,VALID,20.4606,VALID,97,VALID,0.334991,
2003-05-27, 00:53:00,VALID,918.163,VALID,0,VALID,98.5087,VALID,0,VALID,20.4413,VALID,97,VALID,0.171429,
2003-05-27, 00:54:00,VALID,918.145,VALID,0,VALID,98.5023,VALID,0,VALID,20.4187,VALID,97,VALID,0.245982,
2003-05-27, 00:55:00,VALID,918.125,VALID,0,VALID,98.4769,VALID,0.0169808,VALID,20.3928,VALID,111,VALID,0.418561,
2003-05-27, 00:56:00,VALID,918.1,VALID,0,VALID,98.4883,VALID,-0.101885,VALID,20.3618,VALID,136,VALID,0.501234,
2003-05-27, 00:57:00,VALID,918.095,VALID,0,VALID,98.4642,VALID,-0.101885,VALID,20.3489,VALID,146,VALID,0.335478,
2003-05-27, 00:58:00,VALID,918.089,VALID,0,VALID,98.4514,VALID,-0.0849042,VALID,20.3238,VALID,129,VALID,0.445076,
2003-05-27, 00:59:00,VALID,918.083,VALID,0,VALID,98.5366,VALID,-0.101885,VALID,20.2999,VALID,121,VALID,0.605903,
2003-05-27, 01:00:00,VALID,918.075,VALID,0,VALID,98.6155,VALID,-0.101885,VALID,20.3034,VALID,143,VALID,0.544643,
2003-05-27, 01:01:00,VALID,918.047,VALID,0,VALID,98.6282,VALID,-0.0849042,VALID,20.284,VALID,96,VALID,0.651752,
2003-05-27, 01:02:00,VALID,918.036,VALID,0,VALID,98.6689,VALID,-0.101885,VALID,20.2743,VALID,96,VALID,0.50692,
2003-05-27, 01:03:00,VALID,918.023,VALID,0,VALID,98.7528,VALID,-0.0849042,VALID,20.2907,VALID,64,VALID,0.216518,
2003-05-27, 01:04:00,VALID,918.019,VALID,0,VALID,98.7477,VALID,-0.0849042,VALID,20.2875,VALID,100,VALID,0.369792,
2003-05-27, 01:05:00,VALID,918.021,VALID,0,VALID,98.7197,VALID,0,VALID,20.286,VALID,120,VALID,0.468339,
2003-05-27, 01:06:00,VALID,918.02,VALID,0,VALID,98.6727,VALID,0,VALID,20.28,VALID,109,VALID,0.415211,
2003-05-27, 01:07:00,VALID,918.023,VALID,0,VALID,98.6727,VALID,0,VALID,20.2803,VALID,127,VALID,0.431108,
2003-05-27, 01:08:00,VALID,918.014,VALID,0,VALID,98.6549,VALID,0.0339617,VALID,20.2766,VALID,125,VALID,0.230686,
2003-05-27, 01:09:00,VALID,918.022,VALID,0,VALID,98.6066,VALID,0,VALID,20.2537,VALID,111,VALID,0.65,
2003-05-27, 01:10:00,VALID,918.013,VALID,0,VALID,98.6167,VALID,0.0339617,VALID,20.2505,VALID,113,VALID,0.333333,
2003-05-27, 01:11:00,VALID,918.01,VALID,0,VALID,98.5926,VALID,0.0169808,VALID,20.2539,VALID,113,VALID,0.301786,
2003-05-27, 01:12:00,VALID,918.003,VALID,0,VALID,98.5354,VALID,0,VALID,20.2251,VALID,139,VALID,0.371652,
2003-05-27, 01:13:00,VALID,918.003,VALID,0,VALID,98.5099,VALID,0.0169808,VALID,20.2117,VALID,122,VALID,0.463305,
2003-05-27, 01:14:00,VALID,917.985,VALID,0,VALID,98.4642,VALID,0,VALID,20.2023,VALID,123,VALID,0.509868,
2003-05-27, 01:15:00,VALID,917.966,VALID,0,VALID,98.4133,VALID,0.0339617,VALID,20.1864,VALID,133,VALID,0.383502,
2003-05-27, 01:16:00,VALID,917.956,VALID,0,VALID,98.4298,VALID,0.0339617,VALID,20.1633,VALID,145,VALID,0.773911,
2003-05-27, 01:17:00,VALID,917.944,VALID,0,VALID,98.3701,VALID,0,VALID,20.167,VALID,118,VALID,0.460938,
2003-05-27, 01:18:00,VALID,917.935,VALID,0,VALID,98.3764,VALID,0,VALID,20.1439,VALID,127,VALID,0.378348,
2003-05-27, 01:19:00,VALID,917.944,VALID,0,VALID,98.351,VALID,0.0169808,VALID,20.1312,VALID,129,VALID,0.255445,
2003-05-27, 01:20:00,VALID,917.969,VALID,0,VALID,98.262,VALID,0,VALID,20.1019,VALID,120,VALID,0.526116,
2003-05-27, 01:21:00,VALID,918.004,VALID,0,VALID,98.2213,VALID,0.0169808,VALID,20.086,VALID,111,VALID,0.423884,
2003-05-27, 01:22:00,VALID,918.017,VALID,0,VALID,98.3548,VALID,0.0169808,VALID,20.0728,VALID,88,VALID,0.807765,
2003-05-27, 01:23:00,VALID,918.013,VALID,0,VALID,98.5366,VALID,0.0509425,VALID,20.0997,VALID,103,VALID,0.806743,
2003-05-27, 01:24:00,VALID,918.002,VALID,0,VALID,98.4985,VALID,0,VALID,20.0992,VALID,78,VALID,0.38511,
2003-05-27, 01:25:00,VALID,917.977,VALID,0,VALID,98.5137,VALID,0.0169808,VALID,20.0793,VALID,87,VALID,0.435133,
2003-05-27, 01:26:00,VALID,917.951,VALID,0,VALID,98.4883,VALID,0.0339617,VALID,20.083,VALID,87,VALID,0.534071,
2003-05-27, 01:27:00,VALID,917.92,VALID,0,VALID,98.5481,VALID,0,VALID,20.0694,VALID,92,VALID,0.882813,
2003-05-27, 01:28:00,VALID,917.887,VALID,0,VALID,98.5188,VALID,0.0169808,VALID,20.0701,VALID,68,VALID,0.699574,
2003-05-27, 01:29:00,VALID,917.875,VALID,0,VALID,98.398,VALID,0.0169808,VALID,20.0438,VALID,82,VALID,0.707366,
2003-05-27, 01:30:00,VALID,917.869,VALID,0,VALID,98.3319,VALID,0,VALID,20.0276,VALID,81,VALID,0.847321,
2003-05-27, 01:31:00,VALID,917.875,VALID,0,VALID,98.3421,VALID,0,VALID,20.0088,VALID,97,VALID,0.793087,
2003-05-27, 01:32:00,VALID,917.883,VALID,0,VALID,98.4108,VALID,0,VALID,20.0187,VALID,75,VALID,0.795025,
2003-05-27, 01:33:00,VALID,917.876,VALID,0,VALID,98.3993,VALID,0.0509425,VALID,20.0217,VALID,89,VALID,0.577895,
2003-05-27, 01:34:00,VALID,917.896,VALID,0,VALID,98.4476,VALID,0.0169808,VALID,20.0252,VALID,117,VALID,0.591383,
2003-05-27, 01:35:00,VALID,917.883,VALID,0,VALID,98.4362,VALID,0,VALID,20.0184,VALID,103,VALID,0.530599,
2003-05-27, 01:36:00,VALID,917.875,VALID,0,VALID,98.4591,VALID,0.0169808,VALID,20.0088,VALID,113,VALID,0.747098,
2003-05-27, 01:37:00,VALID,917.854,VALID,0,VALID,98.4476,VALID,0.0509425,VALID,19.9822,VALID,110,VALID,0.586411,
2003-05-27, 01:38:00,VALID,917.831,VALID,0,VALID,98.5087,VALID,0.0509425,VALID,19.9695,VALID,146,VALID,0.530357,
2003-05-27, 01:39:00,VALID,917.817,VALID,0,VALID,98.4921,VALID,0.0339617,VALID,19.9633,VALID,148,VALID,0.401786,
2003-05-27, 01:40:00,VALID,917.791,VALID,0,VALID,98.4336,VALID,0.0339617,VALID,19.9377,VALID,112,VALID,0.519413,
2003-05-27, 01:41:00,VALID,917.765,VALID,0,VALID,98.4273,VALID,0.0509425,VALID,19.892,VALID,128,VALID,0.612253,
2003-05-27, 01:42:00,VALID,917.736,VALID,0,VALID,98.5214,VALID,0.0509425,VALID,19.893,VALID,155,VALID,0.54136,
2003-05-27, 01:43:00,VALID,917.698,VALID,0,VALID,98.6218,VALID,0.0169808,VALID,19.8734,VALID,138,VALID,0.83428,
2003-05-27, 01:44:00,VALID,917.678,VALID,0,VALID,98.6473,VALID,0.0169808,VALID,19.8669,VALID,116,VALID,0.435981,
2003-05-27, 01:45:00,VALID,917.656,VALID,0,VALID,98.6244,VALID,0.0169808,VALID,19.8577,VALID,120,VALID,0.525893,
2003-05-27, 01:46:00,VALID,917.625,VALID,0,VALID,98.585,VALID,0.0169808,VALID,19.8182,VALID,120,VALID,0.612689,
2003-05-27, 01:47:00,VALID,917.6,VALID,0,VALID,98.6015,VALID,0,VALID,19.7959,VALID,117,VALID,0.60692,
2003-05-27, 01:48:00,VALID,917.593,VALID,0,VALID,98.5824,VALID,0.0339617,VALID,19.774,VALID,107,VALID,0.886161,
2003-05-27, 01:49:00,VALID,917.578,VALID,0,VALID,98.7477,VALID,0,VALID,19.7576,VALID,62,VALID,1.41116,
2003-05-27, 01:50:00,VALID,917.572,VALID,0,VALID,98.5773,VALID,0,VALID,19.7315,VALID,60,VALID,1.21176,
2003-05-27, 01:51:00,VALID,917.554,VALID,0,VALID,98.6358,VALID,0.0169808,VALID,19.6925,VALID,74,VALID,1.01471,
2003-05-27, 01:52:00,VALID,917.526,VALID,0,VALID,98.7426,VALID,0.0169808,VALID,19.6963,VALID,83,VALID,0.766335,
2003-05-27, 01:53:00,VALID,917.498,VALID,0,VALID,98.8164,VALID,0.0169808,VALID,19.6766,VALID,112,VALID,0.566623,
2003-05-27, 01:54:00,VALID,917.461,VALID,0,VALID,98.8406,VALID,0,VALID,19.6672,VALID,110,VALID,0.559375,
2003-05-27, 01:55:00,VALID,917.442,VALID,0,VALID,98.8749,VALID,0,VALID,19.6376,VALID,81,VALID,0.769176,
2003-05-27, 01:56:00,VALID,917.428,VALID,0,VALID,98.8736,VALID,-0.0339617,VALID,19.6121,VALID,102,VALID,0.64933,
2003-05-27, 01:57:00,VALID,917.417,VALID,0,VALID,98.9245,VALID,0,VALID,19.6029,VALID,83,VALID,0.878348,
2003-05-27, 01:58:00,VALID,917.413,VALID,0,VALID,98.9436,VALID,-0.0169808,VALID,19.5733,VALID,76,VALID,0.607718,
2003-05-27, 01:59:00,VALID,917.406,VALID,0,VALID,98.9855,VALID,-0.0339617,VALID,19.5509,VALID,58,VALID,1.08717,
2003-05-27, 02:00:00,VALID,917.392,VALID,0,VALID,98.9423,VALID,-0.0679233,VALID,19.5259,VALID,40,VALID,0.954733,
2003-05-27, 02:01:00,VALID,917.38,VALID,0,VALID,98.9436,VALID,0,VALID,19.4672,VALID,34,VALID,0.952415,
2003-05-27, 02:02:00,VALID,917.368,VALID,0,VALID,99.0415,VALID,-0.0339617,VALID,19.4481,VALID,20,VALID,0.919705,
2003-05-27, 02:03:00,VALID,917.362,VALID,0,VALID,99.1292,VALID,-0.0509425,VALID,19.4481,VALID,25,VALID,0.615625,
2003-05-27, 02:04:00,VALID,917.345,VALID,0,VALID,99.1457,VALID,-0.0339617,VALID,19.4382,VALID,21,VALID,0.28125,
2003-05-27, 02:05:00,VALID,917.343,VALID,0,VALID,99.1724,VALID,-0.0339617,VALID,19.4349,VALID,22,VALID,0.205804,
2003-05-27, 02:06:00,VALID,917.325,VALID,0,VALID,99.147,VALID,-0.0339617,VALID,19.4156,VALID,54,VALID,0.360714,
2003-05-27, 02:07:00,VALID,917.302,VALID,0,VALID,99.1457,VALID,-0.0339617,VALID,19.4128,VALID,79,VALID,0.350616,
2003-05-27, 02:08:00,VALID,917.296,VALID,0,VALID,99.1457,VALID,-0.0169808,VALID,19.383,VALID,79,VALID,0.50699,
2003-05-27, 02:09:00,VALID,917.269,VALID,0,VALID,99.1623,VALID,-0.0339617,VALID,19.3575,VALID,79,VALID,0.546186,
2003-05-27, 02:10:00,VALID,917.259,VALID,0,VALID,99.2131,VALID,0,VALID,19.3473,VALID,62,VALID,0.487216,
2003-05-27, 02:11:00,VALID,917.271,VALID,0,VALID,99.2169,VALID,0,VALID,19.3346,VALID,47,VALID,0.611111,
2003-05-27, 02:12:00,VALID,917.274,VALID,0,VALID,99.2119,VALID,0,VALID,19.3058,VALID,42,VALID,0.533482,
2003-05-27, 02:13:00,VALID,917.278,VALID,0,VALID,99.2055,VALID,0,VALID,19.28,VALID,43,VALID,0.470407,
2003-05-27, 02:14:00,VALID,917.269,VALID,0,VALID,99.2042,VALID,0,VALID,19.2636,VALID,51,VALID,0.654911,
2003-05-27, 02:15:00,VALID,917.257,VALID,0,VALID,99.2475,VALID,0,VALID,19.2444,VALID,53,VALID,0.881696,
2003-05-27, 02:16:00,VALID,917.244,VALID,0,VALID,99.2729,VALID,0,VALID,19.2382,VALID,47,VALID,0.818892,
2003-05-27, 02:17:00,VALID,917.228,VALID,0,VALID,99.2653,VALID,0,VALID,19.2025,VALID,53,VALID,0.673725,
2003-05-27, 02:18:00,VALID,917.22,VALID,0,VALID,99.2907,VALID,0,VALID,19.193,VALID,53,VALID,0.595818,
2003-05-27, 02:19:00,VALID,917.232,VALID,0,VALID,99.3301,VALID,-0.0169808,VALID,19.1739,VALID,39,VALID,0.651278,
2003-05-27, 02:20:00,VALID,917.248,VALID,0,VALID,99.3505,VALID,-0.101885,VALID,19.152,VALID,43,VALID,0.536892,
2003-05-27, 02:21:00,VALID,917.261,VALID,0,VALID,99.3428,VALID,-0.101885,VALID,19.1497,VALID,57,VALID,0.58058,
2003-05-27, 02:22:00,VALID,917.275,VALID,0,VALID,99.3199,VALID,-0.101885,VALID,19.1036,VALID,65,VALID,0.620502,
2003-05-27, 02:23:00,VALID,917.287,VALID,0,VALID,99.2958,VALID,-0.118866,VALID,19.0852,VALID,88,VALID,0.646652,
2003-05-27, 02:24:00,VALID,917.282,VALID,0,VALID,99.3327,VALID,-0.101885,VALID,19.0427,VALID,91,VALID,0.683705,
2003-05-27, 02:25:00,VALID,917.266,VALID,0,VALID,99.4293,VALID,-0.118866,VALID,19.0434,VALID,94,VALID,0.617661,
2003-05-27, 02:26:00,VALID,917.244,VALID,0,VALID,99.4903,VALID,0,VALID,19.0385,VALID,98,VALID,0.55222,
2003-05-27, 02:27:00,VALID,917.231,VALID,0,VALID,99.5234,VALID,-0.0339617,VALID,19.0346,VALID,128,VALID,0.42716,
2003-05-27, 02:28:00,VALID,917.214,VALID,0,VALID,99.5628,VALID,-0.0509425,VALID,19.0484,VALID,128,VALID,0.183712,
2003-05-27, 02:29:00,VALID,917.214,VALID,0,VALID,99.5857,VALID,-0.0509425,VALID,19.0512,VALID,130,VALID,0.378255,
2003-05-27, 02:30:00,VALID,917.194,VALID,0,VALID,99.6022,VALID,-0.0169808,VALID,19.0678,VALID,117,VALID,0.433259,
2003-05-27, 02:31:00,VALID,917.183,VALID,0,VALID,99.6035,VALID,-0.0339617,VALID,19.0678,VALID,98,VALID,0.302794,
2003-05-27, 02:32:00,VALID,917.159,VALID,0,VALID,99.62,VALID,-0.0169808,VALID,19.0678,VALID,54,VALID,0.428571,
2003-05-27, 02:33:00,VALID,917.139,VALID,0,VALID,99.6226,VALID,0,VALID,19.0646,VALID,33,VALID,0.554018,
2003-05-27, 02:34:00,VALID,917.119,VALID,0,VALID,99.6175,VALID,-0.0169808,VALID,19.0318,VALID,42,VALID,0.580019,
2003-05-27, 02:35:00,VALID,917.104,VALID,0,VALID,99.5959,VALID,-0.0169808,VALID,19.0254,VALID,66,VALID,0.703125,
2003-05-27, 02:36:00,VALID,917.094,VALID,0,VALID,99.5806,VALID,-0.0169808,VALID,18.9965,VALID,85,VALID,0.835938,
2003-05-27, 02:37:00,VALID,917.073,VALID,0,VALID,99.5704,VALID,-0.0169808,VALID,18.9578,VALID,97,VALID,1.04238,
2003-05-27, 02:38:00,VALID,917.065,VALID,0,VALID,99.5539,VALID,-0.0509425,VALID,18.9387,VALID,99,VALID,0.95204,
2003-05-27, 02:39:00,VALID,917.064,VALID,0,VALID,99.5781,VALID,0,VALID,18.9091,VALID,81,VALID,0.854464,
2003-05-27, 02:40:00,VALID,917.048,VALID,0,VALID,99.5984,VALID,-0.0169808,VALID,18.89,VALID,86,VALID,0.681345,
2003-05-27, 02:41:00,VALID,917.034,VALID,0,VALID,99.615,VALID,-0.0339617,VALID,18.8808,VALID,93,VALID,0.596652,
2003-05-27, 02:42:00,VALID,917.037,VALID,0,VALID,99.6595,VALID,0,VALID,18.8838,VALID,106,VALID,0.454911,
2003-05-27, 02:43:00,VALID,917.029,VALID,0,VALID,99.6709,VALID,0,VALID,18.8674,VALID,110,VALID,0.555161,
2003-05-27, 02:44:00,VALID,917.032,VALID,0,VALID,99.6925,VALID,0,VALID,18.8806,VALID,99,VALID,0.739309,
2003-05-27, 02:45:00,VALID,917.021,VALID,0,VALID,99.7129,VALID,0,VALID,18.8972,VALID,85,VALID,0.93704,
2003-05-27, 02:46:00,VALID,917.013,VALID,0,VALID,99.7192,VALID,0,VALID,18.8806,VALID,87,VALID,0.999053,
2003-05-27, 02:47:00,VALID,917.004,VALID,0,VALID,99.7307,VALID,-0.0169808,VALID,18.8872,VALID,94,VALID,0.996745,
2003-05-27, 02:48:00,VALID,916.99,VALID,0,VALID,99.7485,VALID,0,VALID,18.8773,VALID,97,VALID,0.725223,
2003-05-27, 02:49:00,VALID,916.99,VALID,0,VALID,99.7536,VALID,0,VALID,18.8808,VALID,113,VALID,0.872633,
2003-05-27, 02:50:00,VALID,916.979,VALID,0,VALID,99.7688,VALID,-0.0169808,VALID,18.8743,VALID,104,VALID,0.888839,
2003-05-27, 02:51:00,VALID,916.949,VALID,0,VALID,99.7803,VALID,-0.0339617,VALID,18.8674,VALID,71,VALID,0.934152,
2003-05-27, 02:52:00,VALID,916.915,VALID,0,VALID,99.7943,VALID,0,VALID,18.8905,VALID,55,VALID,0.961174,
2003-05-27, 02:53:00,VALID,916.893,VALID,0,VALID,99.8171,VALID,0,VALID,18.8997,VALID,59,VALID,0.824836,
2003-05-27, 02:54:00,VALID,916.886,VALID,0,VALID,99.8311,VALID,0,VALID,18.8965,VALID,60,VALID,0.507583,
2003-05-27, 02:55:00,VALID,916.873,VALID,0,VALID,99.84,VALID,0,VALID,18.89,VALID,84,VALID,0.316051,
2003-05-27, 02:56:00,VALID,916.864,VALID,0,VALID,99.8337,VALID,0,VALID,18.887,VALID,119,VALID,0.848958,
2003-05-27, 02:57:00,VALID,916.861,VALID,0,VALID,99.8197,VALID,0,VALID,18.8803,VALID,94,VALID,0.443304,
2003-05-27, 02:58:00,VALID,916.843,VALID,0,VALID,99.8337,VALID,-0.0169808,VALID,18.8838,VALID,95,VALID,0.30232,
2003-05-27, 02:59:00,VALID,916.834,VALID,0,VALID,99.8451,VALID,0,VALID,18.8838,VALID,97,VALID,0.372768,
2003-05-27, 03:00:00,VALID,916.818,VALID,0,VALID,99.8604,VALID,0.0169808,VALID,18.8833,VALID,90,VALID,0.555804,
2003-05-27, 03:01:00,VALID,916.798,VALID,0,VALID,99.8655,VALID,0,VALID,18.9032,VALID,83,VALID,0.777699,
2003-05-27, 03:02:00,VALID,916.793,VALID,0,VALID,99.882,VALID,0.0169808,VALID,18.8999,VALID,134,VALID,0.642064,
2003-05-27, 03:03:00,VALID,916.79,VALID,0,VALID,99.882,VALID,0,VALID,18.9029,VALID,138,VALID,0.338006,
2003-05-27, 03:04:00,VALID,916.787,VALID,0,VALID,99.8884,VALID,-0.0169808,VALID,18.9133,VALID,151,VALID,0.665246,
2003-05-27, 03:05:00,VALID,916.786,VALID,0,VALID,99.9011,VALID,0,VALID,18.9191,VALID,136,VALID,0.827257,
2003-05-27, 03:06:00,VALID,916.766,VALID,0,VALID,99.896,VALID,-0.0169808,VALID,18.9223,VALID,72,VALID,0.187946,
2003-05-27, 03:07:00,VALID,916.764,VALID,0,VALID,99.9074,VALID,0,VALID,18.9322,VALID,142,VALID,0.449574,
2003-05-27, 03:08:00,VALID,916.751,VALID,0,VALID,99.8909,VALID,0.0169808,VALID,18.9193,VALID,134,VALID,0.484598,
2003-05-27, 03:09:00,VALID,916.753,VALID,0,VALID,99.8884,VALID,0,VALID,18.9069,VALID,131,VALID,0.948661,
2003-05-27, 03:10:00,VALID,916.768,VALID,0,VALID,99.8845,VALID,0,VALID,18.8739,VALID,130,VALID,0.744081,
2003-05-27, 03:11:00,VALID,916.781,VALID,0,VALID,99.8934,VALID,-0.118866,VALID,18.8529,VALID,116,VALID,0.66509,
2003-05-27, 03:12:00,VALID,916.784,VALID,0,VALID,99.8807,VALID,-0.101885,VALID,18.8301,VALID,144,VALID,0.849724,
2003-05-27, 03:13:00,VALID,916.771,VALID,0,VALID,99.8858,VALID,-0.101885,VALID,18.8109,VALID,125,VALID,0.816051,
2003-05-27, 03:14:00,VALID,916.748,VALID,0,VALID,99.882,VALID,-0.101885,VALID,18.8015,VALID,127,VALID,0.365885,
2003-05-27, 03:15:00,VALID,916.71,VALID,0,VALID,99.8871,VALID,-0.101885,VALID,18.7916,VALID,117,VALID,0.251116,
2003-05-27, 03:16:00,VALID,916.694,VALID,0,VALID,99.8934,VALID,-0.101885,VALID,18.7819,VALID,126,VALID,0.367898,
2003-05-27, 03:17:00,VALID,916.66,VALID,0,VALID,99.8909,VALID,-0.101885,VALID,18.7593,VALID,105,VALID,0.429018,
2003-05-27, 03:18:00,VALID,916.654,VALID,0,VALID,99.8985,VALID,-0.101885,VALID,18.7535,VALID,130,VALID,0.462277,
2003-05-27, 03:19:00,VALID,916.635,VALID,0,VALID,99.9036,VALID,-0.101885,VALID,18.7464,VALID,144,VALID,0.0435606,
2003-05-27, 03:20:00,VALID,916.635,VALID,0,VALID,99.9023,VALID,-0.118866,VALID,18.7367,VALID,116,VALID,0.25514,
2003-05-27, 03:21:00,VALID,916.615,VALID,0,VALID,99.9074,VALID,-0.118866,VALID,18.7272,VALID,108,VALID,0.474724,
2003-05-27, 03:22:00,VALID,916.611,VALID,0,VALID,99.9036,VALID,-0.118866,VALID,18.7046,VALID,84,VALID,0.678741,
2003-05-27, 03:23:00,VALID,916.591,VALID,0,VALID,99.8934,VALID,-0.118866,VALID,18.6723,VALID,90,VALID,0.721137,
2003-05-27, 03:24:00,VALID,916.578,VALID,0,VALID,99.8934,VALID,-0.101885,VALID,18.6497,VALID,100,VALID,0.647098,
2003-05-27, 03:25:00,VALID,916.562,VALID,0,VALID,99.8998,VALID,-0.101885,VALID,18.6569,VALID,120,VALID,0.621212,
2003-05-27, 03:26:00,VALID,916.565,VALID,0,VALID,99.9074,VALID,-0.0169808,VALID,18.629,VALID,108,VALID,0.865848,
2003-05-27, 03:27:00,VALID,916.573,VALID,0,VALID,99.9163,VALID,-0.0509425,VALID,18.6257,VALID,119,VALID,0.60558,
2003-05-27, 03:28:00,VALID,916.613,VALID,0,VALID,99.9227,VALID,-0.0169808,VALID,18.623,VALID,102,VALID,0.801373,
2003-05-27, 03:29:00,VALID,916.622,VALID,0,VALID,99.9278,VALID,-0.0509425,VALID,18.62,VALID,102,VALID,0.71361,
2003-05-27, 03:30:00,VALID,916.628,VALID,0,VALID,99.9379,VALID,-0.0169808,VALID,18.6195,VALID,123,VALID,0.53148,
2003-05-27, 03:31:00,VALID,916.61,VALID,0,VALID,99.9519,VALID,-0.0339617,VALID,18.62,VALID,110,VALID,0.588778,
2003-05-27, 03:32:00,VALID,916.586,VALID,0,VALID,99.9468,VALID,0,VALID,18.6237,VALID,102,VALID,0.538411,
2003-05-27, 03:33:00,VALID,916.556,VALID,0,VALID,99.9443,VALID,0,VALID,18.6006,VALID,93,VALID,0.579018,
2003-05-27, 03:34:00,VALID,916.527,VALID,0,VALID,99.9456,VALID,0,VALID,18.5778,VALID,85,VALID,0.631392,
2003-05-27, 03:35:00,VALID,916.515,VALID,0,VALID,99.9354,VALID,-0.0169808,VALID,18.5586,VALID,109,VALID,0.803571,
2003-05-27, 03:36:00,VALID,916.528,VALID,0,VALID,99.9456,VALID,0,VALID,18.5356,VALID,115,VALID,0.693973,